• In India
  • List of Countries
  • For 7 days
  • Water Temperature
  • Satellite Maps
  • Weather Map
  • Weather Widgets
  • user-avatar
    Login

    Hourly Weather Gitega

    Today, 22 January, Monday

    Time Temperature Precipitation Wind Pressure Humidity
    00:00 +16°C° 0.4 mm 1 mps 622 mmHg 91%
    01:00 +16°C° 0.4 mm 1 mps 622 mmHg 91%
    02:00 +15°C° 0 mm 1 mps 622 mmHg 92%
    03:00 +15°C° 0.2 mm 1 mps 622 mmHg 91%
    04:00 +15°C° 0.2 mm 1 mps 622 mmHg 91%
    05:00 +15°C° 0.2 mm 1 mps 622 mmHg 91%
    06:00 +18°C° 0 mm 1 mps 622 mmHg 85%
    07:00 +19°C° 0 mm 1 mps 623 mmHg 80%
    08:00 +20°C° 0 mm 1 mps 624 mmHg 75%
    09:00 +23°C° 0.1 mm 1 mps 624 mmHg 65%
    10:00 +25°C° 0.1 mm 1 mps 624 mmHg 55%
    11:00 +27°C° 0.1 mm 2 mps 625 mmHg 46%
    12:00 +27°C° 0.1 mm 2 mps 624 mmHg 47%
    13:00 +26°C° 0.1 mm 2 mps 624 mmHg 49%
    14:00 +25°C° 0 mm 2 mps 623 mmHg 52%
    15:00 +24°C° 0.8 mm 2 mps 623 mmHg 58%
    16:00 +23°C° 0.8 mm 1 mps 622 mmHg 64%
    17:00 +22°C° 0.8 mm 1 mps 622 mmHg 70%
    18:00 +21°C° 1.4 mm 1 mps 622 mmHg 76%
    19:00 +19°C° 1.4 mm 1 mps 622 mmHg 83%
    20:00 +18°C° 1.4 mm 1 mps 622 mmHg 89%
    21:00 +18°C° 1.4 mm 1 mps 622 mmHg 90%
    22:00 +18°C° 1.4 mm 1 mps 622 mmHg 91%
    23:00 +16°C° 1.4 mm 1 mps 623 mmHg 92%

    Tomorrow, 23 January, Tuesday

    Time Temperature Precipitation Wind Pressure Humidity
    00:00 +16°C° 0.6 mm 1 mps 622 mmHg 92%
    01:00 +16°C° 0.6 mm 1 mps 622 mmHg 92%
    02:00 +15°C° 0.6 mm 1 mps 622 mmHg 92%
    03:00 +15°C° 0.3 mm 1 mps 621 mmHg 92%
    04:00 +15°C° 0.3 mm 1 mps 621 mmHg 92%
    05:00 +15°C° 0.3 mm 1 mps 621 mmHg 92%
    06:00 +16°C° 0 mm 1 mps 622 mmHg 88%
    07:00 +18°C° 0 mm 1 mps 622 mmHg 83%
    08:00 +19°C° 0 mm 1 mps 623 mmHg 79%
    09:00 +21°C° 0 mm 1 mps 624 mmHg 70%
    10:00 +23°C° 0 mm 2 mps 624 mmHg 60%
    11:00 +26°C° 0 mm 2 mps 624 mmHg 50%
    12:00 +26°C° 0.1 mm 2 mps 624 mmHg 50%
    13:00 +26°C° 0.1 mm 2 mps 624 mmHg 50%
    14:00 +26°C° 0.1 mm 3 mps 623 mmHg 49%
    15:00 +24°C° 0.7 mm 2 mps 622 mmHg 58%
    16:00 +23°C° 0.7 mm 2 mps 622 mmHg 67%
    17:00 +21°C° 0.7 mm 1 mps 621 mmHg 76%
    18:00 +20°C° 0.8 mm 1 mps 621 mmHg 80%
    19:00 +19°C° 0.8 mm 1 mps 621 mmHg 83%
    20:00 +18°C° 0.8 mm 1 mps 621 mmHg 86%
    21:00 +18°C° 0.5 mm 1 mps 622 mmHg 87%
    22:00 +16°C° 0.5 mm 1 mps 622 mmHg 88%
    23:00 +16°C° 0.5 mm 1 mps 622 mmHg 89%

    Day after tomorrow, 24 January, Wednesday

    Time Temperature Precipitation Wind Pressure Humidity
    00:00 +16°C° 0.3 mm 1 mps 622 mmHg 90%
    01:00 +16°C° 0.3 mm 1 mps 622 mmHg 90%
    02:00 +15°C° 0.3 mm 1 mps 621 mmHg 90%
    03:00 +15°C° 0.1 mm 1 mps 621 mmHg 90%
    04:00 +15°C° 0.1 mm 1 mps 621 mmHg 90%
    05:00 +15°C° 0.1 mm 1 mps 621 mmHg 90%
    06:00 +16°C° 0.1 mm 1 mps 622 mmHg 86%
    07:00 +18°C° 0.1 mm 1 mps 623 mmHg 82%
    08:00 +19°C° 0.1 mm 1 mps 624 mmHg 79%
    09:00 +20°C° 0.1 mm 1 mps 624 mmHg 72%
    10:00 +22°C° 0.1 mm 1 mps 624 mmHg 65%
    11:00 +24°C° 0.1 mm 1 mps 625 mmHg 58%
    12:00 +24°C° 0.2 mm 1 mps 624 mmHg 57%
    13:00 +25°C° 0.2 mm 2 mps 623 mmHg 55%
    14:00 +25°C° 0.2 mm 2 mps 623 mmHg 53%
    15:00 +24°C° 0.4 mm 2 mps 622 mmHg 60%
    16:00 +23°C° 0.4 mm 2 mps 622 mmHg 66%
    17:00 +21°C° 0.4 mm 2 mps 621 mmHg 72%
    18:00 +19°C° 0.8 mm 2 mps 621 mmHg 78%
    19:00 +19°C° 0.8 mm 1 mps 621 mmHg 84%
    20:00 +18°C° 0.8 mm 1 mps 622 mmHg 91%
    21:00 +16°C° 0.3 mm 1 mps 622 mmHg 91%
    22:00 +16°C° 0.3 mm 1 mps 622 mmHg 91%
    23:00 +16°C° 0.3 mm 1 mps 623 mmHg 91%

    25 January, Thursday

    Time Temperature Precipitation Wind Pressure Humidity
    00:00 +16°C° 0.1 mm 1 mps 622 mmHg 92%
    01:00 +16°C° 0.1 mm 1 mps 622 mmHg 92%
    02:00 +15°C° 0.1 mm 1 mps 621 mmHg 92%
    03:00 +15°C° 0.1 mm 1 mps 621 mmHg 92%
    04:00 +15°C° 0.1 mm 1 mps 621 mmHg 92%
    05:00 +15°C° 0.1 mm 1 mps 621 mmHg 92%
    06:00 +16°C° 0.1 mm 1 mps 622 mmHg 88%
    07:00 +18°C° 0.1 mm 1 mps 623 mmHg 84%
    08:00 +19°C° 0.1 mm 1 mps 623 mmHg 81%
    09:00 +21°C° 0.1 mm 1 mps 624 mmHg 72%
    10:00 +24°C° 0.1 mm 1 mps 625 mmHg 63%
    11:00 +26°C° 0.1 mm 1 mps 625 mmHg 54%
    12:00 +26°C° 0.4 mm 1 mps 624 mmHg 55%
    13:00 +26°C° 0.4 mm 1 mps 623 mmHg 55%
    14:00 +25°C° 0.4 mm 2 mps 623 mmHg 55%
    15:00 +24°C° 1.1 mm 2 mps 622 mmHg 61%
    16:00 +23°C° 1.1 mm 2 mps 622 mmHg 68%
    17:00 +21°C° 1.1 mm 2 mps 621 mmHg 74%
    18:00 +21°C° 0.5 mm 1 mps 621 mmHg 78%
    19:00 +20°C° 0.5 mm 1 mps 622 mmHg 83%
    20:00 +16°C° 0.5 mm 0 mps 622 mmHg 87%
    21:00 +16°C° 0.2 mm 0 mps 622 mmHg 88%
    22:00 +18°C° 0.2 mm 1 mps 622 mmHg 88%
    23:00 +16°C° 0.2 mm 1 mps 622 mmHg 89%

    26 January, Friday

    Time Temperature Precipitation Wind Pressure Humidity
    00:00 +16°C° 0.2 mm 1 mps 622 mmHg 89%
    01:00 +16°C° 0.2 mm 1 mps 621 mmHg 90%
    02:00 +16°C° 0.2 mm 1 mps 621 mmHg 90%
    03:00 +15°C° 0.2 mm 1 mps 621 mmHg 90%
    04:00 +15°C° 0.2 mm 1 mps 621 mmHg 90%
    05:00 +15°C° 0.2 mm 1 mps 621 mmHg 90%
    06:00 +16°C° 0.1 mm 1 mps 622 mmHg 85%
    07:00 +19°C° 0.1 mm 1 mps 623 mmHg 81%
    08:00 +20°C° 0.1 mm 1 mps 624 mmHg 76%
    09:00 +22°C° 0.1 mm 1 mps 624 mmHg 68%
    10:00 +24°C° 0.1 mm 1 mps 624 mmHg 59%
    11:00 +26°C° 0.1 mm 1 mps 625 mmHg 51%
    12:00 +26°C° 0.1 mm 1 mps 624 mmHg 50%
    13:00 +27°C° 0.1 mm 2 mps 623 mmHg 49%
    14:00 +27°C° 0.1 mm 2 mps 622 mmHg 48%
    15:00 +26°C° 0.3 mm 2 mps 622 mmHg 53%
    16:00 +25°C° 0.3 mm 1 mps 622 mmHg 58%
    17:00 +24°C° 0.3 mm 1 mps 621 mmHg 62%
    18:00 +22°C° 0.6 mm 1 mps 621 mmHg 69%
    19:00 +20°C° 0.6 mm 1 mps 621 mmHg 75%
    20:00 +18°C° 0.6 mm 1 mps 621 mmHg 82%
    21:00 +18°C° 0.9 mm 1 mps 621 mmHg 83%
    22:00 +18°C° 0.9 mm 1 mps 621 mmHg 84%
    23:00 +16°C° 0.9 mm 1 mps 622 mmHg 86%

    27 January, Saturday

    Time Temperature Precipitation Wind Pressure Humidity
    00:00 +16°C° 0.2 mm 1 mps 621 mmHg 85%
    01:00 +16°C° 0.2 mm 1 mps 621 mmHg 85%
    02:00 +16°C° 0.2 mm 1 mps 621 mmHg 84%
    03:00 +16°C° 0.1 mm 1 mps 621 mmHg 84%
    04:00 +15°C° 0.1 mm 1 mps 621 mmHg 84%
    05:00 +15°C° 0.1 mm 1 mps 621 mmHg 83%
    06:00 +18°C° 0 mm 1 mps 622 mmHg 79%
    07:00 +19°C° 0 mm 1 mps 623 mmHg 75%
    08:00 +20°C° 0 mm 1 mps 624 mmHg 71%
    09:00 +23°C° 0.1 mm 1 mps 624 mmHg 63%
    10:00 +25°C° 0.1 mm 1 mps 624 mmHg 55%
    11:00 +27°C° 0.1 mm 1 mps 625 mmHg 47%
    12:00 +27°C° 0.1 mm 2 mps 624 mmHg 47%
    13:00 +27°C° 0.1 mm 2 mps 623 mmHg 47%
    14:00 +27°C° 0.1 mm 2 mps 622 mmHg 47%
    15:00 +26°C° 0.5 mm 2 mps 622 mmHg 53%
    16:00 +25°C° 0.5 mm 1 mps 621 mmHg 60%
    17:00 +24°C° 0.5 mm 1 mps 621 mmHg 66%
    18:00 +22°C° 0.7 mm 1 mps 621 mmHg 71%
    19:00 +21°C° 0.7 mm 1 mps 621 mmHg 75%
    20:00 +19°C° 0.7 mm 1 mps 621 mmHg 80%
    21:00 +19°C° 0.4 mm 1 mps 621 mmHg 82%
    22:00 +18°C° 0.4 mm 1 mps 621 mmHg 84%
    23:00 +18°C° 0.4 mm 1 mps 622 mmHg 85%
    Show more